COSMOS 2485 (747)

Last updated on Jan. 23, 2021, 7:31 a.m. UTC

1 39155U 13019A   21022.55147491  .00000000  00000-0  00000-0 0  9990
2 39155  64.7183 140.0579 0019883 228.8197 130.7489  2.13101785 60260
UTC
Height (km)
Latitude
Longitude
Inclination
Orbital Period
UTC large
Height (km)
Speed (km/s)
/
Latitude / Longitude
Inclination (degrees)
Orbital Period (minutes)
Azimuth
Elevation
Range (km)
Doppler Factor
iOS Compass Heading
iOS Angle

Next 30 passes for location: Hong Kong

Rise time Rise Azimuth (degrees) Set time Set Azimuth (degrees) Duration Max altitude (degrees)

No matching passes for this satellites